sat.trackr.live / text

‹ back to catalog

STARLINK-1172

NORAD 45074 · 2020-006AG

PAYLOAD ACTIVE UNKNOWN

§ Identity

Operator
Country
US
Launch date
2020-01-29
Launch site
AFETR
Launch vehicle
Mass (kg)
RCS (m²)

Purposes: comms

External: N2YO · Heavens-Above · Gunter

§ Orbital elements

Epoch: 2026-05-25T00:25:53.832288Z

Period
93.69 min
Inclination
53.1539°
Eccentricity
0.0002691
Mean motion
15.36997628 rev/d
Perigee alt
453.2 km
Apogee alt
456.8 km
Semi-major
6,833.1 km
B*
1.1974e-3
RAAN
261.3850°
Arg perigee
278.7007°
Mean anomaly
81.3691°
Rev number
34,858

§ Raw data

STARLINK-11721 45074U 20006AG  26145.01798417  .00043838  00000+0  11974-2 0  99922 45074  53.1539 261.3850 0002691 278.7007  81.3691 15.36997628348584

JSON: /api/v1/satellites/45074 · /tle

For live sub-satellite position, see the globe view (requires WebGL).

§ Visibility from observer

Set your observer location to see the next 7 days of passes ≥ 10°. The values pass through the URL so the page stays shareable.

No JS? Fill the form by hand. The geolocation button needs JavaScript.